Tracking 27419 objects as of 9-Jun-2023
HD Live streaming from Space Station
objects crossing your sky now

DELTA 1 DEB

Track DELTA 1 DEB now!
10-day predictions


NORAD ID: 7200
Int'l Code: 1973-086FJ
Perigee: 1,438.5 km
Apogee: 1,924.7 km
Inclination: 102.4 °
Period: 119.9 minutes
Semi major axis: 8052 km
RCS: 0.0922 m2 (small)
Launch date: November 6, 1973
Source: United States (US)
Launch site: AIR FORCE WESTERN TEST RANGE (AFWTR)

Note: This is SATELLITE DEBRIS
Your satellite tracking list
Your tracking list is empty




NASA's NSSDC Master Catalog

Two Line Element Set (TLE):
1 07200U 73086FJ  23159.04276616 -.00000317  00000-0 -29447-2 0  9996
2 07200 102.3860 188.0852 0301893  73.3474 316.8599 12.01428062169558
Source of the keplerian elements: AFSPC